Retour au catalogue

DELTA 1 DEB

ActifSSO
NORAD 10644·DEBRIS·🇺🇸 United States

Lancé Jul 29, 1976 depuis Vandenberg Space Force Base

Loading…

Prochains Passages (prochaines 24 heures)

TLE

FraisSource: Space-Track

Époque: Sep 14, 2026, 09:10 UTC

1 10644U 76077E   26257.38241841 -.00000083  00000-0 -21243-3 0  9993
2 10644 101.3869 221.5632 0105831 200.0731 315.3236 12.61841654305983

Suivez DELTA 1 DEB en temps réel avec AllMySat

Download on the App Store